| time (UTC) | temp C | wind direction | speed KPH | gust KPH | rain 1hr cm | rain 24hr cm | rain mn cm | humidity % | barometer mb |
| 20260503021548 | 14 | 192 | 0.0 | 3.2 | 0.00 | 1.12 | 0.00 | 93 | 1011.2 |
| 20260503021515 | 14 | 192 | 0.0 | 3.2 | 0.00 | 1.12 | 0.00 | 93 | 1011.1 |
| 20260503021048 | 14 | 192 | 1.6 | 4.8 | 0.00 | 1.12 | 0.00 | 93 | 1011.0 |
| 20260503021015 | 14 | 172 | 1.6 | 4.8 | 0.00 | 1.12 | 0.00 | 93 | 1011.0 |
| 20260503020544 | 14 | 192 | 1.6 | 4.8 | 0.00 | 1.12 | 0.00 | 93 | 1011.2 |
| 20260503020515 | 14 | 164 | 1.6 | 4.8 | 0.00 | 1.12 | 0.00 | 93 | 1011.2 |
| 20260503020046 | 14 | 144 | 0.0 | 4.8 | 0.00 | 1.12 | 0.00 | 93 | 1011.0 |
| 20260503020015 | 14 | 134 | 1.6 | 4.8 | 0.00 | 1.12 | 0.00 | 93 | 1011.1 |
| 20260503015537 | 14 | 143 | 0.0 | 4.8 | 0.00 | 1.12 | 0.00 | 93 | 1011.0 |
| 20260503015514 | 14 | 126 | 0.0 | 4.8 | 0.00 | 1.12 | 0.00 | 93 | 1011.0 |
| 20260503015052 | 14 | 194 | 1.6 | 6.4 | 0.00 | 1.12 | 0.00 | 93 | 1011.0 |
| 20260503015040 | 14 | 94 | 1.6 | 4.8 | 0.00 | 1.12 | 0.00 | 93 | 1011.1 |
| 20260503015015 | 14 | 179 | 1.6 | 6.4 | 0.00 | 1.12 | 0.00 | 93 | 1011.1 |
| 20260503014515 | 14 | 165 | 1.6 | 6.4 | 0.00 | 1.12 | 0.00 | 93 | 1011.0 |
| 20260503014023 | 14 | 165 | 0.0 | 6.4 | 0.00 | 1.12 | 0.00 | 93 | 1010.7 |
| 20260503014014 | 14 | 124 | 0.0 | 3.2 | 0.00 | 1.12 | 0.00 | 93 | 1010.8 |
| 20260503013525 | 14 | 112 | 0.0 | 3.2 | 0.00 | 1.12 | 0.00 | 93 | 1010.7 |
| 20260503013514 | 14 | 147 | 0.0 | 3.2 | 0.00 | 1.12 | 0.00 | 93 | 1010.9 |
| 20260503013037 | 14 | 144 | 1.6 | 4.8 | 0.00 | 1.12 | 0.00 | 93 | 1010.8 |
| 20260503013015 | 14 | 151 | 1.6 | 4.8 | 0.00 | 1.12 | 0.00 | 93 | 1010.9 |
| 20260503012528 | 14 | 158 | 1.6 | 6.4 | 0.00 | 1.12 | 0.00 | 93 | 1010.9 |
| 20260503012515 | 14 | 155 | 1.6 | 6.4 | 0.00 | 1.12 | 0.00 | 93 | 1011.0 |
| 20260503012017 | 14 | 136 | 1.6 | 6.4 | 0.00 | 1.12 | 0.00 | 93 | 1010.9 |
| 20260503012015 | 14 | 160 | 1.6 | 6.4 | 0.00 | 1.12 | 0.00 | 93 | 1010.9 |
| 20260503011516 | 14 | 157 | 1.6 | 6.4 | 0.00 | 1.12 | 0.00 | 92 | 1011.0 |
| 20260503011514 | 14 | 142 | 1.6 | 6.4 | 0.00 | 1.12 | 0.00 | 92 | 1011.0 |
| 20260503011017 | 14 | 131 | 1.6 | 4.8 | 0.00 | 1.12 | 0.00 | 92 | 1011.2 |
| 20260503011015 | 14 | 171 | 1.6 | 4.8 | 0.00 | 1.12 | 0.00 | 92 | 1011.2 |
| 20260503010624 | 14 | 246 | 1.6 | 6.4 | 0.00 | 1.12 | 0.00 | 92 | 1011.1 |
| 20260503010535 | 14 | 246 | 1.6 | 3.2 | 0.00 | 1.12 | 0.00 | 92 | 1011.2 |
| 20260503010515 | 14 | 237 | 1.6 | 3.2 | 0.00 | 1.12 | 0.00 | 92 | 1011.2 |
| 20260503010015 | 14 | 185 | 1.6 | 6.4 | 0.00 | 1.12 | 0.00 | 92 | 1011.2 |
| 20260503005515 | 14 | 159 | 1.6 | 6.4 | 0.00 | 1.12 | 0.00 | 92 | 1011.3 |
| 20260503005456 | 14 | 138 | 1.6 | 4.8 | 0.00 | 1.12 | 0.00 | 92 | 1011.3 |
| 20260503005036 | 14 | 145 | 1.6 | 4.8 | 0.00 | 1.12 | 0.00 | 92 | 1011.4 |
| 20260503004642 | 14 | 175 | 3.2 | 9.7 | 0.00 | 1.12 | 0.00 | 92 | 1011.4 |
| 20260503004611 | 14 | 215 | 3.2 | 9.7 | 0.00 | 1.12 | 0.00 | 92 | 1011.3 |
| 20260503004536 | 14 | 144 | 1.6 | 4.8 | 0.00 | 1.12 | 0.00 | 92 | 1011.3 |
| 20260503004517 | 14 | 150 | 1.6 | 4.8 | 0.00 | 1.12 | 0.00 | 92 | 1011.4 |
| 20260503004015 | 14 | 162 | 3.2 | 9.7 | 0.00 | 1.12 | 0.00 | 92 | 1011.4 |
| 20260503003515 | 14 | 170 | 3.2 | 9.7 | 0.00 | 1.12 | 0.00 | 92 | 1011.4 |
| 20260503003021 | 14 | 167 | 3.2 | 8.0 | 0.00 | 1.12 | 0.00 | 92 | 1011.5 |
| 20260503003015 | 14 | 172 | 3.2 | 8.0 | 0.00 | 1.12 | 0.00 | 92 | 1011.5 |
| 20260503002514 | 14 | 178 | 3.2 | 9.7 | 0.00 | 1.12 | 0.00 | 92 | 1011.5 |
| 20260503002130 | 15 | 115 | 1.6 | 6.4 | 0.00 | 1.12 | 0.00 | 92 | 1011.5 |
| 20260503002022 | 14 | 181 | 1.6 | 9.7 | 0.00 | 1.12 | 0.00 | 92 | 1011.4 |
| 20260503002016 | 15 | 151 | 1.6 | 9.7 | 0.00 | 1.12 | 0.00 | 92 | 1011.5 |
| 20260503001536 | 15 | 142 | 1.6 | 6.4 | 0.00 | 1.12 | 0.00 | 92 | 1011.6 |
| 20260503001440 | 15 | 164 | 0.0 | 3.2 | 0.00 | 1.12 | 0.00 | 92 | 1011.8 |
| 20260503001436 | 15 | 164 | 0.0 | 3.2 | 0.00 | 1.12 | 0.00 | 92 | 1011.8 |
| 20260503001429 | 15 | 181 | 0.0 | 3.2 | 0.00 | 1.12 | 0.00 | 92 | 1012.0 |
| 20260503001144 | 15 | 164 | 0.0 | 6.4 | 0.00 | 1.12 | 0.00 | 92 | 1011.7 |
| 20260503001036 | 15 | 158 | 0.0 | 6.4 | 0.00 | 1.12 | 0.00 | 92 | 1011.6 |
| 20260503000514 | 15 | 159 | 0.0 | 3.2 | 0.00 | 1.12 | 0.00 | 92 | 1011.7 |
| 20260503000015 | 15 | 179 | 0.0 | 3.2 | 0.00 | 1.12 | 0.00 | 92 | 1011.9 |
| 20260502235535 | 15 | 192 | 0.0 | 3.2 | 0.00 | 1.12 | 0.00 | 92 | 1012.1 |
| 20260502235014 | 15 | 204 | 0.0 | 3.2 | 0.00 | 1.12 | 0.00 | 92 | 1012.2 |
| 20260502235008 | 15 | 204 | 0.0 | 3.2 | 0.00 | 1.12 | 0.00 | 92 | 1012.2 |
| 20260502234650 | 15 | 204 | 0.0 | 3.2 | 0.00 | 1.12 | 0.00 | 92 | 1012.3 |
| 20260502234531 | 15 | 204 | 1.6 | 3.2 | 0.00 | 1.12 | 0.00 | 92 | 1012.3 |
| 20260502234514 | 15 | 209 | 1.6 | 3.2 | 0.00 | 1.12 | 0.00 | 92 | 1012.3 |
| 20260502234036 | 15 | 220 | 0.0 | 3.2 | 0.00 | 1.12 | 0.00 | 92 | 1012.3 |
| 20260502233514 | 15 | 243 | 1.6 | 4.8 | 0.00 | 1.12 | 0.00 | 92 | 1012.4 |
| 20260502233503 | 15 | 242 | 1.6 | 4.8 | 0.00 | 1.12 | 0.00 | 92 | 1012.4 |
| 20260502233017 | 15 | 242 | 1.6 | 4.8 | 0.00 | 1.12 | 0.00 | 92 | 1012.8 |
| 20260502233014 | 15 | 225 | 1.6 | 4.8 | 0.00 | 1.12 | 0.00 | 92 | 1012.8 |
| 20260502232514 | 15 | 138 | 0.0 | 4.8 | 0.00 | 1.12 | 0.00 | 92 | 1012.7 |
| 20260502232455 | 15 | 163 | 0.0 | 3.2 | 0.00 | 1.12 | 0.00 | 92 | 1012.6 |
| 20260502232100 | 15 | 113 | 0.0 | 3.2 | 0.00 | 1.12 | 0.00 | 91 | 1012.4 |
| 20260502232015 | 15 | 95 | 0.0 | 3.2 | 0.00 | 1.12 | 0.00 | 91 | 1012.3 |
| 20260502231959 | 15 | 113 | 0.0 | 3.2 | 0.00 | 1.12 | 0.00 | 91 | 1012.2 |
| 20260502231514 | 15 | 65 | 0.0 | 3.2 | 0.00 | 1.12 | 0.00 | 91 | 1012.4 |
| 20260502231015 | 15 | 47 | 0.0 | 3.2 | 0.00 | 1.12 | 0.00 | 91 | 1012.4 |
| 20260502230950 | 15 | 61 | 0.0 | 3.2 | 0.00 | 1.12 | 0.00 | 91 | 1012.3 |
| 20260502230514 | 15 | 29 | 1.6 | 6.4 | 0.00 | 1.12 | 0.00 | 91 | 1012.2 |
| 20260502230445 | 15 | 32 | 1.6 | 6.4 | 0.00 | 1.12 | 0.00 | 91 | 1012.2 |
| 20260502230248 | 15 | 32 | 1.6 | 9.7 | 0.00 | 1.12 | 0.00 | 91 | 1012.3 |
| 20260502230027 | 15 | 32 | 1.6 | 6.4 | 0.00 | 1.12 | 0.00 | 91 | 1012.2 |
| 20260502230014 | 15 | 31 | 1.6 | 6.4 | 0.00 | 1.12 | 0.00 | 91 | 1012.3 |
| 20260502225514 | 15 | 30 | 1.6 | 8.0 | 0.00 | 1.12 | 0.00 | 91 | 1012.4 |
| 20260502225014 | 15 | 29 | 3.2 | 9.7 | 0.00 | 1.12 | 0.00 | 91 | 1012.3 |
| 20260502224948 | 15 | 29 | 3.2 | 9.7 | 0.00 | 1.12 | 0.00 | 91 | 1012.4 |
| 20260502224559 | 15 | 40 | 3.2 | 6.4 | 0.03 | 1.12 | 0.00 | 90 | 1012.5 |
| 20260502224535 | 15 | 29 | 4.8 | 9.7 | 0.00 | 1.12 | 0.00 | 91 | 1012.3 |
| 20260502224444 | 15 | 15 | 3.2 | 8.0 | 0.00 | 1.12 | 0.00 | 91 | 1012.4 |
| 20260502224132 | 15 | 42 | 3.2 | 6.4 | 0.00 | 1.12 | 0.00 | 91 | 1012.4 |
| 20260502224015 | 15 | 27 | 3.2 | 8.0 | 0.00 | 1.12 | 0.00 | 91 | 1012.4 |
| 20260502223658 | 15 | 19 | 3.2 | 9.7 | 0.03 | 1.12 | 0.00 | 90 | 1012.5 |
| 20260502223632 | 15 | 53 | 3.2 | 9.7 | 0.05 | 1.12 | 0.00 | 90 | 1012.6 |
| 20260502223526 | 15 | 29 | 3.2 | 6.4 | 0.00 | 1.12 | 0.00 | 90 | 1012.4 |
| 20260502223514 | 15 | 26 | 3.2 | 6.4 | 0.00 | 1.12 | 0.00 | 90 | 1012.5 |
| 20260502223036 | 15 | 30 | 3.2 | 6.4 | 0.03 | 1.12 | 0.00 | 90 | 1012.5 |
| 20260502222535 | 15 | 39 | 3.2 | 9.7 | 0.03 | 1.12 | 0.00 | 90 | 1012.5 |
| 20260502222015 | 15 | 42 | 3.2 | 9.7 | 0.05 | 1.12 | 0.00 | 90 | 1012.5 |
| 20260502221702 | 15 | 38 | 1.6 | 8.0 | 0.08 | 1.12 | 0.00 | 90 | 1012.8 |
| 20260502221515 | 15 | 53 | 1.6 | 6.4 | 0.05 | 1.12 | 0.00 | 90 | 1012.7 |
| 20260502221501 | 15 | 21 | 1.6 | 6.4 | 0.05 | 1.12 | 0.00 | 90 | 1012.7 |
| 20260502221016 | 15 | 79 | 1.6 | 6.4 | 0.08 | 1.12 | 0.00 | 90 | 1012.8 |
| 20260502220855 | 15 | 53 | 1.6 | 8.0 | 0.30 | 1.12 | 0.00 | 89 | 1012.9 |
| 20260502220826 | 15 | 96 | 1.6 | 6.4 | 0.51 | 1.12 | 0.00 | 89 | 1012.9 |
| 20260502220556 | 15 | 93 | 1.6 | 8.0 | 0.10 | 1.12 | 0.00 | 89 | 1012.9 |
| 20260502220514 | 15 | 60 | 1.6 | 8.0 | 0.10 | 1.12 | 0.00 | 90 | 1013.0 |
| 20260502220106 | 15 | 47 | 1.6 | 8.0 | 0.25 | 1.12 | 0.00 | 89 | 1012.9 |
| 20260502215514 | 15 | 63 | 1.6 | 6.4 | 0.48 | 1.12 | 1.12 | 89 | 1012.9 |
| 20260502215015 | 15 | 61 | 1.6 | 8.0 | 0.84 | 1.12 | 1.12 | 89 | 1013.0 |
| 20260502214938 | 15 | 121 | 1.6 | 8.0 | 0.89 | 1.12 | 0.00 | 89 | 1013.0 |
| 20260502214514 | 15 | 59 | 1.6 | 8.0 | 1.09 | 1.12 | 1.12 | 88 | 1013.0 |
| 20260502214429 | 15 | 86 | 1.6 | 8.0 | 1.12 | 1.12 | 0.00 | 88 | 1013.0 |
| 20260502214017 | 15 | 74 | 0.0 | 4.8 | 1.12 | 1.12 | 1.12 | 88 | 1013.1 |
| 20260502213930 | 15 | 53 | 0.0 | 4.8 | 1.12 | 1.12 | 0.00 | 88 | 1013.0 |
| 20260502213514 | 15 | 35 | 3.2 | 8.0 | 1.12 | 1.12 | 1.12 | 88 | 1013.2 |
| 20260502213429 | 15 | 111 | 3.2 | 8.0 | 1.12 | 1.12 | 0.00 | 87 | 1013.1 |
| 20260502213014 | 15 | 26 | 4.8 | 12.9 | 1.09 | 1.09 | 1.09 | 87 | 1013.1 |
| 20260502212951 | 15 | 51 | 4.8 | 12.9 | 1.09 | 1.09 | 0.00 | 87 | 1013.0 |
| 20260502212514 | 15 | 27 | 4.8 | 12.9 | 1.09 | 1.09 | 1.09 | 87 | 1012.9 |
| 20260502212443 | 15 | 38 | 4.8 | 12.9 | 1.09 | 1.09 | 0.00 | 87 | 1012.9 |
| 20260502212014 | 15 | 27 | 4.8 | 9.7 | 1.09 | 1.09 | 1.09 | 86 | 1013.1 |
| 20260502211943 | 15 | 38 | 4.8 | 9.7 | 1.09 | 1.09 | 0.00 | 86 | 1013.0 |
| 20260502211515 | 15 | 15 | 3.2 | 9.7 | 1.09 | 1.09 | 1.09 | 85 | 1013.3 |
| 20260502211417 | 15 | 24 | 3.2 | 9.7 | 1.09 | 1.09 | 0.00 | 85 | 1013.3 |
| 20260502211014 | 16 | 332 | 3.2 | 14.5 | 1.04 | 1.04 | 1.04 | 85 | 1013.5 |
| 20260502210916 | 16 | 15 | 3.2 | 14.5 | 1.04 | 1.04 | 0.00 | 84 | 1013.6 |
| 20260502210514 | 16 | 295 | 4.8 | 16.1 | 1.02 | 1.02 | 1.02 | 83 | 1013.9 |
| 20260502210428 | 16 | 304 | 4.8 | 16.1 | 0.99 | 0.99 | 0.00 | 83 | 1014.0 |
| 20260502210016 | 16 | 269 | 8.0 | 16.1 | 0.86 | 0.86 | 0.89 | 82 | 1014.2 |
| 20260502205904 | 16 | 192 | 8.0 | 20.9 | 0.81 | 0.81 | 0.00 | 81 | 1014.2 |
| 20260502205514 | 16 | 266 | 9.7 | 24.1 | 0.64 | 0.64 | 0.64 | 80 | 1014.3 |
| 20260502205406 | 16 | 225 | 9.7 | 24.1 | 0.58 | 0.58 | 0.00 | 79 | 1014.3 |
| 20260502205341 | 20 | 316 | 1.6 | 16.1 | 0.00 | 0.00 | 0.00 | 67 | 1013.5 |
| 20260502205015 | 17 | 251 | 11.3 | 35.4 | 0.28 | 0.28 | 0.28 | 76 | 1014.1 |
| 20260502204920 | 17 | 245 | 11.3 | 35.4 | 0.20 | 0.20 | 0.00 | 75 | 1013.9 |
| 20260502204709 | 20 | 316 | 1.6 | 16.1 | 0.00 | 0.00 | 0.00 | 67 | 1013.5 |
| 20260502204516 | 18 | 233 | 9.7 | 35.4 | 0.03 | 0.03 | 0.03 | 70 | 1013.4 |
| 20260502204439 | 18 | 141 | 8.0 | 35.4 | 0.00 | 0.00 | 0.00 | 69 | 1013.5 |
| 20260502204016 | 20 | 225 | 3.2 | 17.7 | 0.00 | 0.00 | 0.00 | 67 | 1013.4 |
| 20260502203514 | 20 | 62 | 1.6 | 4.8 | 0.00 | 0.00 | 0.00 | 66 | 1012.9 |
| 20260502203402 | 20 | 37 | 1.6 | 4.8 | 0.00 | 0.00 | 0.00 | 66 | 1012.6 |
| 20260502203015 | 20 | 53 | 3.2 | 6.4 | 0.00 | 0.00 | 0.00 | 66 | 1012.5 |
| 20260502202903 | 20 | 80 | 1.6 | 6.4 | 0.00 | 0.00 | 0.00 | 65 | 1012.5 |
| 20260502202643 | 20 | 54 | 3.2 | 8.0 | 0.00 | 0.00 | 0.00 | 64 | 1012.5 |
| 20260502202515 | 20 | 41 | 3.2 | 8.0 | 0.00 | 0.00 | 0.00 | 65 | 1012.5 |
| 20260502202037 | 20 | 41 | 3.2 | 8.0 | 0.00 | 0.00 | 0.00 | 64 | 1012.4 |
| 20260502201933 | 20 | 42 | 3.2 | 8.0 | 0.00 | 0.00 | 0.00 | 64 | 1012.4 |
| 20260502201515 | 20 | 42 | 1.6 | 8.0 | 0.00 | 0.00 | 0.00 | 63 | 1012.6 |
| 20260502201440 | 20 | 21 | 1.6 | 8.0 | 0.00 | 0.00 | 0.00 | 63 | 1012.4 |
| 20260502201015 | 20 | 42 | 1.6 | 6.4 | 0.00 | 0.00 | 0.00 | 63 | 1012.4 |
| 20260502200907 | 20 | 52 | 1.6 | 6.4 | 0.00 | 0.00 | 0.00 | 63 | 1012.5 |
| 20260502200552 | 20 | 32 | 1.6 | 6.4 | 0.00 | 0.00 | 0.00 | 62 | 1012.5 |
| 20260502200536 | 20 | 33 | 1.6 | 6.4 | 0.00 | 0.00 | 0.00 | 63 | 1012.5 |
| 20260502200406 | 20 | 52 | 3.2 | 8.0 | 0.00 | 0.00 | 0.00 | 63 | 1012.5 |
| 20260502200331 | 20 | 32 | 1.6 | 6.4 | 0.00 | 0.00 | 0.00 | 62 | 1012.5 |
| 20260502200015 | 20 | 35 | 3.2 | 8.0 | 0.00 | 0.00 | 0.00 | 63 | 1012.5 |
| 20260502195938 | 20 | 69 | 3.2 | 8.0 | 0.00 | 0.00 | 0.00 | 63 | 1012.5 |
| 20260502195514 | 20 | 50 | 3.2 | 8.0 | 0.00 | 0.00 | 0.00 | 62 | 1012.5 |
| 20260502195014 | 20 | 68 | 1.6 | 4.8 | 0.00 | 0.00 | 0.00 | 62 | 1012.6 |
| 20260502194856 | 20 | 82 | 1.6 | 4.8 | 0.00 | 0.00 | 0.00 | 62 | 1012.6 |
| 20260502194515 | 20 | 78 | 1.6 | 3.2 | 0.00 | 0.00 | 0.00 | 62 | 1012.7 |
| 20260502194403 | 20 | 81 | 1.6 | 3.2 | 0.00 | 0.00 | 0.00 | 62 | 1012.8 |
| 20260502194014 | 20 | 61 | 1.6 | 3.2 | 0.00 | 0.00 | 0.00 | 62 | 1012.8 |
| 20260502193855 | 20 | 94 | 1.6 | 4.8 | 0.00 | 0.00 | 0.00 | 62 | 1012.8 |
| 20260502193515 | 20 | 38 | 1.6 | 4.8 | 0.00 | 0.00 | 0.00 | 61 | 1012.8 |
| 20260502193359 | 20 | 38 | 1.6 | 4.8 | 0.00 | 0.00 | 0.00 | 61 | 1012.8 |
| 20260502193015 | 21 | 34 | 1.6 | 4.8 | 0.00 | 0.00 | 0.00 | 61 | 1012.8 |
| 20260502192938 | 21 | 29 | 1.6 | 4.8 | 0.00 | 0.00 | 0.00 | 61 | 1013.0 |
| 20260502192910 | 20 | 38 | 1.6 | 4.8 | 0.00 | 0.00 | 0.00 | 61 | 1012.7 |
| 20260502192514 | 21 | 30 | 1.6 | 4.8 | 0.00 | 0.00 | 0.00 | 61 | 1012.9 |
| 20260502192014 | 21 | 30 | 3.2 | 4.8 | 0.00 | 0.00 | 0.00 | 61 | 1013.0 |
| 20260502191912 | 21 | 11 | 3.2 | 6.4 | 0.00 | 0.00 | 0.00 | 61 | 1012.9 |
| 20260502191847 | 21 | 29 | 1.6 | 4.8 | 0.00 | 0.00 | 0.00 | 61 | 1013.0 |
| 20260502191515 | 21 | 43 | 1.6 | 4.8 | 0.00 | 0.00 | 0.00 | 61 | 1013.0 |
| 20260502191035 | 21 | 41 | 3.2 | 6.4 | 0.00 | 0.00 | 0.00 | 60 | 1012.9 |
| 20260502190833 | 21 | 48 | 3.2 | 8.0 | 0.00 | 0.00 | 0.00 | 61 | 1012.9 |
| 20260502190514 | 21 | 25 | 3.2 | 11.3 | 0.00 | 0.00 | 0.00 | 60 | 1012.9 |
| 20260502190331 | 21 | 33 | 3.2 | 11.3 | 0.00 | 0.00 | 0.00 | 60 | 1012.8 |
| 20260502190015 | 21 | 24 | 4.8 | 11.3 | 0.00 | 0.00 | 0.00 | 60 | 1012.9 |
| 20260502185835 | 21 | 28 | 4.8 | 11.3 | 0.00 | 0.00 | 0.00 | 60 | 1012.9 |
| 20260502185513 | 21 | 26 | 3.2 | 8.0 | 0.00 | 0.00 | 0.00 | 60 | 1012.9 |
| 20260502185335 | 21 | 21 | 3.2 | 8.0 | 0.00 | 0.00 | 0.00 | 60 | 1013.0 |
| 20260502185044 | 21 | 38 | 1.6 | 6.4 | 0.00 | 0.00 | 0.00 | 60 | 1013.0 |
| 20260502185035 | 21 | 30 | 3.2 | 6.4 | 0.00 | 0.00 | 0.00 | 60 | 1013.0 |
| 20260502184902 | 21 | 34 | 3.2 | 6.4 | 0.00 | 0.00 | 0.00 | 60 | 1013.0 |
| 20260502184514 | 21 | 28 | 3.2 | 6.4 | 0.00 | 0.00 | 0.00 | 60 | 1012.9 |
| 20260502184035 | 21 | 28 | 3.2 | 6.4 | 0.00 | 0.00 | 0.00 | 60 | 1013.0 |
| 20260502183834 | 21 | 20 | 3.2 | 9.7 | 0.00 | 0.00 | 0.00 | 60 | 1013.0 |
| 20260502183515 | 22 | 31 | 3.2 | 9.7 | 0.00 | 0.00 | 0.00 | 60 | 1013.1 |
| 20260502183330 | 21 | 43 | 4.8 | 12.9 | 0.00 | 0.00 | 0.00 | 60 | 1013.0 |
| 20260502183014 | 22 | 30 | 4.8 | 12.9 | 0.00 | 0.00 | 0.00 | 60 | 1013.0 |
| 20260502182829 | 22 | 31 | 4.8 | 12.9 | 0.00 | 0.00 | 0.00 | 60 | 1012.8 |
| 20260502182647 | 22 | 57 | 4.8 | 12.9 | 0.00 | 0.00 | 0.00 | 59 | 1012.9 |
| 20260502182514 | 22 | 27 | 4.8 | 12.9 | 0.00 | 0.00 | 0.00 | 59 | 1013.0 |
| 20260502182404 | 22 | 18 | 4.8 | 12.9 | 0.00 | 0.00 | 0.00 | 59 | 1012.9 |
| 20260502182015 | 22 | 20 | 4.8 | 12.9 | 0.00 | 0.00 | 0.00 | 59 | 1013.0 |
| 20260502181607 | 22 | 44 | 4.8 | 12.9 | 0.00 | 0.00 | 0.00 | 59 | 1012.9 |
| 20260502181535 | 22 | 17 | 4.8 | 12.9 | 0.00 | 0.00 | 0.00 | 59 | 1013.0 |
| 20260502181035 | 22 | 17 | 4.8 | 11.3 | 0.00 | 0.00 | 0.00 | 59 | 1013.0 |
| 20260502180825 | 22 | 0 | 4.8 | 8.0 | 0.00 | 0.00 | 0.00 | 59 | 1013.0 |
| 20260502180659 | 23 | 350 | 4.8 | 8.0 | 0.00 | 0.00 | 0.00 | 60 | 1013.0 |
| 20260502180636 | 22 | 5 | 6.4 | 11.3 | 0.00 | 0.00 | 0.00 | 59 | 1012.9 |
| 20260502180514 | 22 | 16 | 4.8 | 9.7 | 0.00 | 0.00 | 0.00 | 59 | 1013.0 |
| 20260502180430 | 22 | 17 | 4.8 | 11.3 | 0.00 | 0.00 | 0.00 | 59 | 1012.9 |
| 20260502170514 | 24 | 8 | 4.8 | 9.7 | 0.00 | 0.00 | 0.00 | 54 | 1013.1 |
| 20260502170318 | 24 | 17 | 4.8 | 9.7 | 0.00 | 0.00 | 0.00 | 53 | 1013.2 |
| 20260502164014 | 25 | 2 | 3.2 | 8.0 | 0.00 | 0.00 | 0.00 | 51 | 1013.3 |
| 20260502163812 | 25 | 297 | 4.8 | 8.0 | 0.00 | 0.00 | 0.00 | 51 | 1013.4 |
| 20260502163513 | 25 | 350 | 4.8 | 9.7 | 0.00 | 0.00 | 0.00 | 51 | 1013.4 |
| 20260502163308 | 25 | 18 | 3.2 | 9.7 | 0.00 | 0.00 | 0.00 | 51 | 1013.4 |
| 20260502163042 | 25 | 317 | 3.2 | 6.4 | 0.00 | 0.00 | 0.00 | 47 | 1013.6 |
| 20260502163035 | 25 | 346 | 3.2 | 9.7 | 0.00 | 0.00 | 0.00 | 50 | 1013.5 |
| 20260502162953 | 25 | 32 | 3.2 | 6.4 | 0.00 | 0.00 | 0.00 | 47 | 1013.6 |
| 20260502162848 | 25 | 337 | 3.2 | 9.7 | 0.00 | 0.00 | 0.00 | 49 | 1013.4 |
| 20260502162514 | 25 | 347 | 3.2 | 6.4 | 0.00 | 0.00 | 0.00 | 47 | 1013.6 |
| 20260502162035 | 25 | 351 | 3.2 | 6.4 | 0.00 | 0.00 | 0.00 | 47 | 1013.6 |
| 20260502161515 | 25 | 332 | 3.2 | 6.4 | 0.00 | 0.00 | 0.00 | 48 | 1013.7 |
| 20260502161303 | 24 | 323 | 3.2 | 6.4 | 0.00 | 0.00 | 0.00 | 48 | 1013.6 |
| 20260502161013 | 24 | 205 | 3.2 | 6.4 | 0.00 | 0.00 | 0.00 | 48 | 1013.6 |
| 20260502160802 | 24 | 200 | 4.8 | 9.7 | 0.00 | 0.00 | 0.00 | 48 | 1013.6 |
| 20260502160513 | 24 | 209 | 4.8 | 9.7 | 0.00 | 0.00 | 0.00 | 48 | 1013.7 |
| 20260502160302 | 24 | 201 | 3.2 | 9.7 | 0.00 | 0.00 | 0.00 | 47 | 1013.7 |
| 20260502152252 | 25 | 292 | 4.8 | 14.5 | 0.00 | 0.00 | 0.00 | 47 | 1014.1 |
| 20260502152036 | 25 | 226 | 4.8 | 14.5 | 0.00 | 0.00 | 0.00 | 48 | 1014.2 |
| 20260502151757 | 25 | 227 | 4.8 | 14.5 | 0.00 | 0.00 | 0.00 | 47 | 1014.2 |
| 20260502151513 | 26 | 264 | 3.2 | 14.5 | 0.00 | 0.00 | 0.00 | 46 | 1014.3 |
| 20260502151255 | 25 | 250 | 1.6 | 9.7 | 0.00 | 0.00 | 0.00 | 47 | 1014.2 |
| 20260502151035 | 25 | 282 | 3.2 | 9.7 | 0.00 | 0.00 | 0.00 | 47 | 1014.3 |
| 20260502150752 | 25 | 350 | 3.2 | 12.9 | 0.00 | 0.00 | 0.00 | 48 | 1014.4 |
| 20260502150514 | 25 | 226 | 4.8 | 12.9 | 0.00 | 0.00 | 0.00 | 47 | 1014.5 |
| 20260502150246 | 25 | 221 | 4.8 | 12.9 | 0.00 | 0.00 | 0.00 | 48 | 1014.4 |
| 20260502130714 | 23 | 231 | 4.8 | 12.9 | 0.00 | 0.00 | 0.00 | 54 | 1016.1 |
| 20260502130513 | 23 | 213 | 4.8 | 11.3 | 0.00 | 0.00 | 0.00 | 54 | 1016.2 |
| 20260502130456 | 23 | 245 | 6.4 | 12.9 | 0.00 | 0.00 | 0.00 | 55 | 1016.1 |
| 20260502123719 | 23 | 212 | 4.8 | 12.9 | 0.00 | 0.00 | 0.00 | 56 | 1016.5 |
| 20260502123513 | 22 | 220 | 4.8 | 12.9 | 0.00 | 0.00 | 0.00 | 56 | 1016.5 |
| 20260502123209 | 23 | 246 | 4.8 | 12.9 | 0.00 | 0.00 | 0.00 | 56 | 1016.5 |
| 20260502123014 | 23 | 227 | 4.8 | 12.9 | 0.00 | 0.00 | 0.00 | 55 | 1016.5 |
| 20260502122724 | 23 | 255 | 4.8 | 12.9 | 0.00 | 0.00 | 0.00 | 55 | 1016.6 |
| 20260502122515 | 23 | 226 | 4.8 | 11.3 | 0.00 | 0.00 | 0.00 | 55 | 1016.6 |
| 20260502122216 | 23 | 257 | 4.8 | 11.3 | 0.00 | 0.00 | 0.00 | 56 | 1016.6 |
| 20260502122014 | 23 | 221 | 4.8 | 14.5 | 0.00 | 0.00 | 0.00 | 56 | 1016.7 |
| 20260502121714 | 23 | 294 | 4.8 | 14.5 | 0.00 | 0.00 | 0.00 | 56 | 1016.7 |
| 20260502121514 | 22 | 227 | 4.8 | 14.5 | 0.00 | 0.00 | 0.00 | 56 | 1016.8 |
| 20260502121211 | 22 | 184 | 4.8 | 14.5 | 0.00 | 0.00 | 0.00 | 56 | 1016.8 |
| 20260502121014 | 22 | 225 | 4.8 | 12.9 | 0.00 | 0.00 | 0.00 | 56 | 1016.8 |
| 20260502120720 | 22 | 257 | 4.8 | 12.9 | 0.00 | 0.00 | 0.00 | 56 | 1016.8 |
| 20260502120513 | 22 | 225 | 4.8 | 12.9 | 0.00 | 0.00 | 0.00 | 56 | 1016.9 |
| 20260502120202 | 23 | 210 | 6.4 | 17.7 | 0.00 | 0.00 | 0.00 | 55 | 1016.8 |
| 20260502115840 | 23 | 206 | 6.4 | 17.7 | 0.00 | 0.00 | 0.00 | 55 | 1016.8 |
| 20260502115728 | 23 | 173 | 8.0 | 17.7 | 0.00 | 0.00 | 0.00 | 54 | 1016.8 |
| 20260502115513 | 23 | 215 | 8.0 | 17.7 | 0.00 | 0.00 | 0.00 | 54 | 1016.8 |
| 20260502115014 | 23 | 217 | 6.4 | 16.1 | 0.00 | 0.00 | 0.00 | 55 | 1016.9 |
| 20260502114728 | 22 | 241 | 6.4 | 14.5 | 0.00 | 0.00 | 0.00 | 57 | 1016.9 |
| 20260502114643 | 22 | 217 | 4.8 | 12.9 | 0.00 | 0.00 | 0.00 | 56 | 1017.0 |
| 20260502114535 | 22 | 213 | 6.4 | 12.9 | 0.00 | 0.00 | 0.00 | 57 | 1017.0 |
| 20260502114349 | 22 | 234 | 4.8 | 12.9 | 0.00 | 0.00 | 0.00 | 56 | 1016.9 |
| 20260502114035 | 22 | 217 | 4.8 | 12.9 | 0.00 | 0.00 | 0.00 | 56 | 1016.9 |
| 20260502113535 | 22 | 246 | 4.8 | 12.9 | 0.00 | 0.00 | 0.00 | 56 | 1017.0 |
| 20260502113230 | 22 | 265 | 6.4 | 14.5 | 0.00 | 0.00 | 0.00 | 55 | 1017.1 |
| 20260502113207 | 22 | 197 | 4.8 | 14.5 | 0.00 | 0.00 | 0.00 | 56 | 1017.0 |
| 20260502113036 | 22 | 263 | 4.8 | 14.5 | 0.00 | 0.00 | 0.00 | 56 | 1017.0 |
| 20260502112748 | 22 | 266 | 4.8 | 14.5 | 0.00 | 0.00 | 0.00 | 56 | 1017.0 |
| 20260502112513 | 22 | 239 | 4.8 | 14.5 | 0.00 | 0.00 | 0.00 | 56 | 1017.1 |
| 20260502112216 | 22 | 279 | 4.8 | 16.1 | 0.00 | 0.00 | 0.00 | 56 | 1017.1 |
| 20260502112014 | 22 | 226 | 4.8 | 14.5 | 0.00 | 0.00 | 0.00 | 56 | 1017.1 |
| 20260502111656 | 22 | 186 | 4.8 | 16.1 | 0.00 | 0.00 | 0.00 | 56 | 1017.1 |
| 20260502111513 | 22 | 217 | 6.4 | 16.1 | 0.00 | 0.00 | 0.00 | 56 | 1017.1 |
| 20260502111302 | 22 | 217 | 6.4 | 16.1 | 0.00 | 0.00 | 0.00 | 56 | 1017.1 |
| 20260502111014 | 22 | 218 | 6.4 | 16.1 | 0.00 | 0.00 | 0.00 | 56 | 1017.2 |
| 20260502110513 | 22 | 208 | 6.4 | 14.5 | 0.00 | 0.00 | 0.00 | 56 | 1017.2 |
| 20260502110312 | 22 | 221 | 6.4 | 17.7 | 0.00 | 0.00 | 0.00 | 57 | 1017.3 |
| 20260502110223 | 22 | 240 | 8.0 | 17.7 | 0.00 | 0.00 | 0.00 | 56 | 1017.3 |
| 20260502110014 | 22 | 214 | 8.0 | 17.7 | 0.00 | 0.00 | 0.00 | 57 | 1017.3 |
| 20260502105534 | 22 | 220 | 6.4 | 17.7 | 0.00 | 0.00 | 0.00 | 56 | 1017.3 |
| 20260502105157 | 22 | 172 | 4.8 | 14.5 | 0.00 | 0.00 | 0.00 | 57 | 1017.2 |
| 20260502105014 | 22 | 219 | 4.8 | 14.5 | 0.00 | 0.00 | 0.00 | 57 | 1017.2 |
| 20260502104746 | 22 | 186 | 6.4 | 20.9 | 0.00 | 0.00 | 0.00 | 57 | 1017.4 |
| 20260502104659 | 22 | 187 | 4.8 | 16.1 | 0.00 | 0.00 | 0.00 | 57 | 1017.2 |
| 20260502104652 | 22 | 303 | 4.8 | 12.9 | 0.00 | 0.00 | 0.00 | 57 | 1017.3 |
| 20260502104515 | 22 | 248 | 4.8 | 16.1 | 0.00 | 0.00 | 0.00 | 57 | 1017.2 |
| 20260502104340 | 21 | 202 | 6.4 | 16.1 | 0.00 | 0.00 | 0.00 | 57 | 1017.2 |
| 20260502104013 | 22 | 238 | 6.4 | 16.1 | 0.00 | 0.00 | 0.00 | 58 | 1017.2 |
| 20260502103513 | 22 | 216 | 6.4 | 17.7 | 0.00 | 0.00 | 0.00 | 56 | 1017.3 |
| 20260502103247 | 22 | 199 | 6.4 | 20.9 | 0.00 | 0.00 | 0.00 | 56 | 1017.3 |
| 20260502103014 | 22 | 214 | 6.4 | 20.9 | 0.00 | 0.00 | 0.00 | 56 | 1017.4 |
| 20260502102513 | 22 | 214 | 6.4 | 20.9 | 0.00 | 0.00 | 0.00 | 57 | 1017.4 |
| 20260502102158 | 21 | 196 | 6.4 | 14.5 | 0.00 | 0.00 | 0.00 | 57 | 1017.4 |
| 20260502102015 | 21 | 212 | 6.4 | 14.5 | 0.00 | 0.00 | 0.00 | 57 | 1017.6 |
| 20260502101658 | 21 | 233 | 6.4 | 14.5 | 0.00 | 0.00 | 0.00 | 58 | 1017.6 |
| 20260502101514 | 21 | 219 | 6.4 | 14.5 | 0.00 | 0.00 | 0.00 | 58 | 1017.6 |
| 20260502101300 | 21 | 211 | 6.4 | 16.1 | 0.00 | 0.00 | 0.00 | 59 | 1017.6 |
| 20260502101154 | 21 | 242 | 4.8 | 16.1 | 0.00 | 0.00 | 0.00 | 59 | 1017.8 |
| 20260502101148 | 21 | 249 | 6.4 | 14.5 | 0.00 | 0.00 | 0.00 | 58 | 1017.6 |
| 20260502101013 | 21 | 224 | 6.4 | 14.5 | 0.00 | 0.00 | 0.00 | 58 | 1017.7 |
| 20260502100821 | 21 | 194 | 6.4 | 14.5 | 0.00 | 0.00 | 0.00 | 58 | 1017.6 |
| 20260502100535 | 21 | 219 | 6.4 | 14.5 | 0.00 | 0.00 | 0.00 | 58 | 1017.6 |
| 20260502091140 | 20 | 169 | 4.8 | 12.9 | 0.00 | 0.00 | 0.00 | 58 | 1018.0 |
| 20260502091015 | 20 | 196 | 6.4 | 12.9 | 0.00 | 0.00 | 0.00 | 58 | 1018.0 |
| 20260502090648 | 20 | 198 | 6.4 | 12.9 | 0.00 | 0.00 | 0.00 | 58 | 1017.9 |
| 20260502090513 | 20 | 206 | 4.8 | 12.9 | 0.00 | 0.00 | 0.00 | 58 | 1018.0 |
| 20260502090151 | 20 | 216 | 4.8 | 11.3 | 0.00 | 0.00 | 0.00 | 58 | 1017.9 |
| 20260502071513 | 15 | 168 | 1.6 | 6.4 | 0.00 | 0.00 | 0.00 | 60 | 1017.9 |
| 20260502071300 | 14 | 180 | 1.6 | 6.4 | 0.00 | 0.00 | 0.00 | 61 | 1017.9 |
| 20260502071153 | 15 | 132 | 1.6 | 4.8 | 0.00 | 0.00 | 0.00 | 61 | 1017.8 |
| 20260502071014 | 15 | 180 | 1.6 | 4.8 | 0.00 | 0.00 | 0.00 | 61 | 1017.9 |
| 20260502070513 | 14 | 180 | 1.6 | 6.4 | 0.00 | 0.00 | 0.00 | 61 | 1018.0 |
| 20260502070128 | 14 | 180 | 1.6 | 6.4 | 0.00 | 0.00 | 0.00 | 61 | 1017.9 |
| 20260502070035 | 14 | 180 | 1.6 | 6.4 | 0.00 | 0.00 | 0.00 | 61 | 1018.0 |
| 20260502065628 | 14 | 180 | 1.6 | 4.8 | 0.00 | 0.00 | 0.00 | 61 | 1018.0 |
| 20260502065513 | 14 | 191 | 1.6 | 4.8 | 0.00 | 0.00 | 0.00 | 61 | 1018.0 |
| 20260502065123 | 14 | 180 | 3.2 | 4.8 | 0.00 | 0.00 | 0.00 | 60 | 1018.0 |
| 20260502065014 | 14 | 204 | 1.6 | 4.8 | 0.00 | 0.00 | 0.00 | 60 | 1018.0 |
| 20260502064953 | 13 | 176 | 1.6 | 4.8 | 0.00 | 0.00 | 0.00 | 60 | 1017.9 |
| 20260502064738 | 13 | 212 | 1.6 | 4.8 | 0.00 | 0.00 | 0.00 | 60 | 1017.9 |
| 20260502064515 | 13 | 215 | 1.6 | 4.8 | 0.00 | 0.00 | 0.00 | 61 | 1018.0 |
| 20260502064208 | 13 | 185 | 1.6 | 4.8 | 0.00 | 0.00 | 0.00 | 60 | 1018.0 |
| 20260502064013 | 13 | 210 | 1.6 | 4.8 | 0.00 | 0.00 | 0.00 | 60 | 1018.0 |
| 20260502063513 | 13 | 209 | 1.6 | 4.8 | 0.00 | 0.00 | 0.00 | 60 | 1018.0 |
| 20260502063334 | 13 | 215 | 1.6 | 4.8 | 0.00 | 0.00 | 0.00 | 59 | 1017.9 |
| 20260502063014 | 13 | 215 | 1.6 | 4.8 | 0.00 | 0.00 | 0.00 | 59 | 1017.9 |
| 20260502062608 | 13 | 215 | 1.6 | 3.2 | 0.00 | 0.00 | 0.00 | 59 | 1017.9 |
| 20260502062513 | 13 | 219 | 1.6 | 3.2 | 0.00 | 0.00 | 0.00 | 59 | 1018.0 |
| 20260502062102 | 13 | 215 | 0.0 | 3.2 | 0.00 | 0.00 | 0.00 | 58 | 1017.9 |
| 20260502062013 | 13 | 248 | 0.0 | 3.2 | 0.00 | 0.00 | 0.00 | 58 | 1017.9 |
| 20260502061620 | 13 | 217 | 0.0 | 3.2 | 0.00 | 0.00 | 0.00 | 58 | 1017.8 |
| 20260502061534 | 13 | 355 | 0.0 | 3.2 | 0.00 | 0.00 | 0.00 | 58 | 1017.9 |
| 20260502061108 | 13 | 355 | 0.0 | 3.2 | 0.00 | 0.00 | 0.00 | 57 | 1017.8 |
| 20260502061035 | 13 | 325 | 0.0 | 3.2 | 0.00 | 0.00 | 0.00 | 57 | 1017.9 |
| 20260502060614 | 13 | 355 | 1.6 | 4.8 | 0.00 | 0.00 | 0.00 | 57 | 1017.7 |
| 20260502060512 | 13 | 259 | 1.6 | 4.8 | 0.00 | 0.00 | 0.00 | 57 | 1017.8 |
| 20260502060014 | 13 | 223 | 3.2 | 9.7 | 0.00 | 0.00 | 0.00 | 57 | 1018.0 |
| 20260502055605 | 13 | 196 | 3.2 | 9.7 | 0.00 | 0.00 | 0.00 | 57 | 1018.1 |
| 20260502055513 | 13 | 219 | 3.2 | 9.7 | 0.00 | 0.00 | 0.00 | 57 | 1018.1 |
| 20260502055103 | 13 | 217 | 1.6 | 8.0 | 0.00 | 0.00 | 0.00 | 57 | 1018.0 |
| 20260502055014 | 13 | 214 | 1.6 | 8.0 | 0.00 | 0.00 | 0.00 | 57 | 1018.0 |
| 20260502054603 | 13 | 205 | 3.2 | 8.0 | 0.00 | 0.00 | 0.00 | 57 | 1018.0 |
| 20260502054514 | 13 | 213 | 3.2 | 6.4 | 0.00 | 0.00 | 0.00 | 57 | 1018.1 |
| 20260502054251 | 13 | 190 | 3.2 | 8.0 | 0.00 | 0.00 | 0.00 | 58 | 1018.0 |
| 20260502054243 | 13 | 220 | 1.6 | 4.8 | 0.00 | 0.00 | 0.00 | 57 | 1017.9 |
| 20260502054144 | 13 | 201 | 3.2 | 8.0 | 0.00 | 0.00 | 0.00 | 58 | 1018.0 |
| 20260502054013 | 13 | 212 | 3.2 | 8.0 | 0.00 | 0.00 | 0.00 | 58 | 1018.1 |
| 20260502053513 | 13 | 206 | 3.2 | 8.0 | 0.00 | 0.00 | 0.00 | 58 | 1018.1 |
| 20260502053013 | 13 | 198 | 1.6 | 4.8 | 0.00 | 0.00 | 0.00 | 57 | 1017.9 |
| 20260502052558 | 13 | 196 | 1.6 | 4.8 | 0.00 | 0.00 | 0.00 | 57 | 1017.8 |
| 20260502052534 | 13 | 195 | 1.6 | 4.8 | 0.00 | 0.00 | 0.00 | 57 | 1017.8 |
| 20260502052104 | 13 | 185 | 1.6 | 3.2 | 0.00 | 0.00 | 0.00 | 57 | 1017.8 |
| 20260502052014 | 13 | 197 | 1.6 | 3.2 | 0.00 | 0.00 | 0.00 | 57 | 1017.9 |
| 20260502051659 | 12 | 203 | 1.6 | 4.8 | 0.00 | 0.00 | 0.00 | 56 | 1017.7 |
| 20260502051615 | 13 | 190 | 1.6 | 3.2 | 0.00 | 0.00 | 0.00 | 56 | 1017.8 |
| 20260502051512 | 13 | 203 | 0.0 | 3.2 | 0.00 | 0.00 | 0.00 | 56 | 1017.8 |
| 20260502051014 | 12 | 200 | 1.6 | 4.8 | 0.00 | 0.00 | 0.00 | 56 | 1017.7 |
| 20260502050544 | 12 | 203 | 1.6 | 6.4 | 0.00 | 0.00 | 0.00 | 56 | 1017.7 |
| 20260502050513 | 12 | 201 | 1.6 | 6.4 | 0.00 | 0.00 | 0.00 | 56 | 1017.7 |
| 20260502050052 | 12 | 167 | 3.2 | 9.7 | 0.00 | 0.00 | 0.00 | 56 | 1017.6 |
| 20260502050034 | 12 | 196 | 3.2 | 9.7 | 0.00 | 0.00 | 0.00 | 56 | 1017.6 |
| 20260502045537 | 12 | 204 | 1.6 | 9.7 | 0.00 | 0.00 | 0.00 | 56 | 1017.7 |
| 20260502045512 | 12 | 190 | 1.6 | 9.7 | 0.00 | 0.00 | 0.00 | 56 | 1017.7 |
| 20260502045047 | 12 | 180 | 3.2 | 11.3 | 0.00 | 0.00 | 0.00 | 56 | 1017.7 |
| 20260502045014 | 12 | 186 | 3.2 | 11.3 | 0.00 | 0.00 | 0.00 | 56 | 1017.8 |
| 20260502044543 | 12 | 217 | 3.2 | 11.3 | 0.00 | 0.00 | 0.00 | 56 | 1017.8 |
| 20260502044513 | 12 | 191 | 3.2 | 11.3 | 0.00 | 0.00 | 0.00 | 56 | 1017.8 |
| 20260502044034 | 12 | 186 | 1.6 | 6.4 | 0.00 | 0.00 | 0.00 | 56 | 1017.7 |
| 20260502044013 | 12 | 199 | 1.6 | 6.4 | 0.00 | 0.00 | 0.00 | 56 | 1017.8 |
| 20260502043539 | 12 | 196 | 3.2 | 6.4 | 0.00 | 0.00 | 0.00 | 56 | 1017.7 |
| 20260502043534 | 12 | 191 | 3.2 | 6.4 | 0.00 | 0.00 | 0.00 | 56 | 1017.7 |
| 20260502043039 | 12 | 192 | 3.2 | 8.0 | 0.00 | 0.00 | 0.00 | 56 | 1017.7 |
| 20260502043014 | 12 | 180 | 3.2 | 8.0 | 0.00 | 0.00 | 0.00 | 56 | 1017.7 |
| 20260502042535 | 12 | 173 | 3.2 | 8.0 | 0.00 | 0.00 | 0.00 | 56 | 1017.6 |
| 20260502042513 | 12 | 172 | 3.2 | 8.0 | 0.00 | 0.00 | 0.00 | 56 | 1017.6 |
| 20260502042039 | 11 | 164 | 1.6 | 8.0 | 0.00 | 0.00 | 0.00 | 57 | 1017.5 |
| 20260502042014 | 11 | 178 | 1.6 | 8.0 | 0.00 | 0.00 | 0.00 | 57 | 1017.6 |
| 20260502041539 | 11 | 179 | 3.2 | 6.4 | 0.00 | 0.00 | 0.00 | 57 | 1017.5 |
| 20260502041513 | 11 | 181 | 3.2 | 6.4 | 0.00 | 0.00 | 0.00 | 57 | 1017.6 |
| 20260502041116 | 11 | 159 | 0.0 | 3.2 | 0.00 | 0.00 | 0.00 | 58 | 1017.8 |
| 20260502041047 | 11 | 176 | 1.6 | 6.4 | 0.00 | 0.00 | 0.00 | 57 | 1017.6 |
| 20260502041013 | 11 | 178 | 1.6 | 6.4 | 0.00 | 0.00 | 0.00 | 58 | 1017.6 |
| 20260502040750 | 11 | 155 | 0.0 | 6.4 | 0.00 | 0.00 | 0.00 | 58 | 1017.6 |
| 20260502040513 | 11 | 172 | 0.0 | 6.4 | 0.00 | 0.00 | 0.00 | 58 | 1017.6 |
| 20260502040121 | 11 | 175 | 0.0 | 6.4 | 0.00 | 0.00 | 0.00 | 58 | 1017.5 |
| 20260502040013 | 11 | 165 | 0.0 | 6.4 | 0.00 | 0.00 | 0.00 | 58 | 1017.6 |
| 20260502035543 | 11 | 159 | 0.0 | 3.2 | 0.00 | 0.00 | 0.00 | 58 | 1017.7 |
| 20260502035513 | 11 | 157 | 0.0 | 3.2 | 0.00 | 0.00 | 0.00 | 58 | 1017.7 |
| 20260502035013 | 11 | 154 | 0.0 | 3.2 | 0.00 | 0.00 | 0.00 | 58 | 1017.8 |
| 20260502034529 | 11 | 142 | 0.0 | 1.6 | 0.00 | 0.00 | 0.00 | 58 | 1017.7 |
| 20260502034513 | 11 | 142 | 0.0 | 1.6 | 0.00 | 0.00 | 0.00 | 58 | 1017.7 |
| 20260502034021 | 11 | 142 | 0.0 | 3.2 | 0.00 | 0.00 | 0.00 | 58 | 1017.8 |
| 20260502034013 | 11 | 151 | 0.0 | 3.2 | 0.00 | 0.00 | 0.00 | 58 | 1017.8 |
| 20260502033530 | 11 | 142 | 0.0 | 3.2 | 0.00 | 0.00 | 0.00 | 58 | 1017.7 |
| 20260502033513 | 11 | 170 | 0.0 | 3.2 | 0.00 | 0.00 | 0.00 | 58 | 1017.8 |
| 20260502033041 | 11 | 184 | 0.0 | 1.6 | 0.00 | 0.00 | 0.00 | 58 | 1017.8 |
| 20260502033013 | 11 | 184 | 0.0 | 1.6 | 0.00 | 0.00 | 0.00 | 58 | 1017.8 |
| 20260502032521 | 11 | 184 | 0.0 | 1.6 | 0.00 | 0.00 | 0.00 | 58 | 1017.8 |
| 20260502032512 | 11 | 184 | 0.0 | 1.6 | 0.00 | 0.00 | 0.00 | 58 | 1017.8 |
| 20260502032018 | 11 | 184 | 0.0 | 1.6 | 0.00 | 0.00 | 0.00 | 58 | 1017.9 |
| 20260502032013 | 11 | 184 | 0.0 | 1.6 | 0.00 | 0.00 | 0.00 | 58 | 1017.9 |
| 20260502031522 | 11 | 184 | 0.0 | 0.0 | 0.00 | 0.00 | 0.00 | 58 | 1017.9 |
| 20260502031512 | 12 | 0 | 0.0 | 0.0 | 0.00 | 0.00 | 0.00 | 58 | 1018.0 |
| 20260502031013 | 12 | 0 | 0.0 | 0.0 | 0.00 | 0.00 | 0.00 | 57 | 1018.0 |
| 20260502030516 | 12 | 184 | 0.0 | 0.0 | 0.00 | 0.00 | 0.00 | 57 | 1017.9 |
| 20260502030514 | 12 | 0 | 0.0 | 0.0 | 0.00 | 0.00 | 0.00 | 57 | 1017.9 |
| 20260502030026 | 12 | 184 | 0.0 | 1.6 | 0.00 | 0.00 | 0.00 | 57 | 1018.0 |
| 20260502030013 | 12 | 185 | 0.0 | 1.6 | 0.00 | 0.00 | 0.00 | 57 | 1018.1 |
| 20260502025623 | 12 | 193 | 1.6 | 4.8 | 0.00 | 0.00 | 0.00 | 56 | 1018.2 |
| 20260502025522 | 12 | 184 | 0.0 | 4.8 | 0.00 | 0.00 | 0.00 | 56 | 1018.0 |
| 20260502025513 | 12 | 190 | 0.0 | 3.2 | 0.00 | 0.00 | 0.00 | 56 | 1018.1 |
| 20260502025034 | 12 | 180 | 1.6 | 4.8 | 0.00 | 0.00 | 0.00 | 56 | 1018.2 |
| 20260502024513 | 12 | 177 | 1.6 | 4.8 | 0.00 | 0.00 | 0.00 | 56 | 1018.2 |
| 20260502024503 | 12 | 186 | 1.6 | 4.8 | 0.00 | 0.00 | 0.00 | 56 | 1018.1 |
| 20260502024013 | 12 | 171 | 1.6 | 4.8 | 0.00 | 0.00 | 0.00 | 56 | 1018.2 |
| 20260502024005 | 12 | 192 | 1.6 | 4.8 | 0.00 | 0.00 | 0.00 | 56 | 1018.1 |
| 20260502023534 | 12 | 161 | 1.6 | 6.4 | 0.00 | 0.00 | 0.00 | 56 | 1018.2 |
| 20260502023502 | 12 | 155 | 1.6 | 6.4 | 0.00 | 0.00 | 0.00 | 56 | 1018.1 |
| 20260502023013 | 12 | 165 | 0.0 | 6.4 | 0.00 | 0.00 | 0.00 | 57 | 1018.3 |
| 20260502023008 | 12 | 172 | 0.0 | 6.4 | 0.00 | 0.00 | 0.00 | 57 | 1018.2 |
| 20260502022514 | 12 | 173 | 0.0 | 6.4 | 0.00 | 0.00 | 0.00 | 58 | 1018.2 |
| 20260502022502 | 12 | 160 | 0.0 | 6.4 | 0.00 | 0.00 | 0.00 | 58 | 1018.2 |
| 20260502022019 | 12 | 155 | 0.0 | 1.6 | 0.00 | 0.00 | 0.00 | 58 | 1018.1 |
| 20260502022013 | 12 | 155 | 0.0 | 1.6 | 0.00 | 0.00 | 0.00 | 58 | 1018.2 |